Weather History for LTBA - September, 2013

Change the Weather History Date:

Sunday, September 15, 2013

  Actual Average Record
Temperature  
Mean Temperature 69 °F -  
Max Temperature 78 °F 70 °F 88 °F (2012)
Min Temperature 60 °F 58 °F 55 °F (1996)
Cooling Degree Days 4    
Growing Degree Days 19 (Base 50)    
Moisture  
Dew Point 54 °F    
Average Humidity 53    
Maximum Humidity 69    
Minimum Humidity 31    
Precipitation  
Precipitation 0.00 in - - ()
Sea Level Pressure  
Sea Level Pressure 29.92 in    
Wind  
Wind Speed 7 mph ()    
Max Wind Speed 16 mph    
Max Gust Speed -    
Visibility 6.2 miles    
Events      
Averages and records for this station are not official NWS values.
T = Trace of Precipitation, MM = Missing Value Source: Averaged Metar Reports

Daily Weather History Graph

Daily Weather History Graph

Search for Another Location

Airport or City:

Trip Planner

Search our weather history database for the weather conditions in past years. The results will help you decide how hot, cold, wet, or windy it might be!

Date:

Astronomy

Sep. 15, 2013 Rise Set
Actual Time 6:45 AM EEST 7:13 PM EEST
Civil Twilight 6:17 AM EEST 7:41 PM EEST
Nautical Twilight 5:45 AM EEST 8:13 PM EEST
Astronomical Twilight 5:11 AM EEST 8:47 PM EEST
Moon 4:28 PM EEST (9/15) 1:59 AM EEST (9/15)
Length of Visible Light 13h 23m
Length of Day
12h 28m
Waxing Gibbous, 79% of the Moon is Illuminated
Sep 15
Waxing Gibbous
Sep 19
Full
Sep 27
Last Quarter
Oct 5
New
Oct 12
First Quarter

Hourly Weather History & Observations

Time (EEST) Temp. Dew Point Humidity Pressure Visibility Wind Dir Wind Speed Gust Speed Precip Events Conditions
12:20 AM 68.0 °F 50.0 °F 52% 29.98 in - West 4.6 mph - N/A   Clear
12:50 AM 68.0 °F 50.0 °F 52% 29.98 in - West 3.5 mph - N/A   Clear
1:20 AM 68.0 °F 50.0 °F 52% 29.98 in - West 4.6 mph - N/A   Clear
1:50 AM 68.0 °F 51.8 °F 56% 29.98 in - West 3.5 mph - N/A   Clear
2:20 AM 68.0 °F 51.8 °F 56% 29.98 in - Variable 2.3 mph - N/A   Clear
2:50 AM 68.0 °F 55.4 °F 64% 29.95 in - WSW 3.5 mph - N/A   Clear
3:20 AM 68.0 °F 53.6 °F 60% 29.95 in - West 6.9 mph - N/A   Clear
3:50 AM 68.0 °F 53.6 °F 60% 29.95 in - West 5.8 mph - N/A   Clear
4:20 AM 66.2 °F 53.6 °F 64% 29.95 in - WNW 5.8 mph - N/A   Clear
4:50 AM 64.4 °F 50.0 °F 59% 29.95 in - NW 4.6 mph - N/A   Clear
5:20 AM 66.2 °F 46.4 °F 49% 29.95 in - West 5.8 mph - N/A   Clear
5:50 AM 66.2 °F 46.4 °F 49% 29.95 in - WNW 4.6 mph - N/A   Clear
6:20 AM 60.8 °F 46.4 °F 59% 29.92 in - NNW 4.6 mph - N/A   Clear
6:50 AM 60.8 °F 48.2 °F 63% 29.92 in - NNW 4.6 mph - N/A   Clear
7:20 AM 64.4 °F 48.2 °F 56% 29.95 in - NW 4.6 mph - N/A   Clear
7:50 AM 68.0 °F 51.8 °F 56% 29.92 in - Variable 2.3 mph - N/A   Clear
8:20 AM 69.8 °F 53.6 °F 56% 29.92 in - WSW 4.6 mph - N/A   Clear
8:50 AM 69.8 °F 55.4 °F 60% 29.92 in - SW 5.8 mph - N/A   Clear
9:00 AM 69 °F 54 °F 50% 29.94 in 6 mi SW 5.8 mph - -  
9:20 AM 73.4 °F 57.2 °F 57% 29.95 in - SW 12.7 mph - N/A   Clear
9:50 AM 71.6 °F 57.2 °F 60% 29.95 in 6.2 mi SSW 15.0 mph - N/A   Partly Cloudy
10:20 AM 73.4 °F 57.2 °F 57% 29.95 in 6.2 mi SW 13.8 mph - N/A   Scattered Clouds
10:50 AM 73.4 °F 57.2 °F 57% 29.95 in 6.2 mi SW 15.0 mph - N/A   Scattered Clouds
11:20 AM 73.4 °F 59.0 °F 61% 29.95 in 6.2 mi SW 13.8 mph - N/A   Scattered Clouds
11:50 AM 75.2 °F 57.2 °F 53% 29.95 in 6.2 mi SW 13.8 mph - N/A   Partly Cloudy
12:20 PM 75.2 °F 55.4 °F 50% 29.95 in 6.2 mi SW 13.8 mph - N/A   Scattered Clouds
12:50 PM 75.2 °F 55.4 °F 50% 29.92 in 6.2 mi SW 15.0 mph - N/A   Scattered Clouds
1:20 PM 75.2 °F 55.4 °F 50% 29.92 in 6.2 mi SSW 13.8 mph - N/A   Scattered Clouds
1:50 PM 77.0 °F 53.6 °F 44% 29.92 in 6.2 mi SSW 15.0 mph - N/A   Scattered Clouds
2:20 PM 77.0 °F 53.6 °F 44% 29.92 in 6.2 mi SSW 16.1 mph - N/A   Scattered Clouds
2:50 PM 77.0 °F 51.8 °F 41% 29.89 in 6.2 mi SSW 15.0 mph - N/A   Scattered Clouds
3:00 PM 78 °F 53 °F 31% 29.91 in 6 mi SSW 15.0 mph - -   Partly Cloudy
3:20 PM 78.8 °F 53.6 °F 42% 29.89 in 6.2 mi SSW 13.8 mph - N/A   Partly Cloudy
3:50 PM 77.0 °F 50.0 °F 39% 29.89 in 6.2 mi SW 15.0 mph - N/A   Partly Cloudy
4:20 PM 77.0 °F 51.8 °F 41% 29.89 in 6.2 mi SSW 13.8 mph - N/A   Partly Cloudy
4:50 PM 77.0 °F 51.8 °F 41% 29.89 in 6.2 mi SSW 12.7 mph - N/A   Partly Cloudy
5:20 PM 77.0 °F 51.8 °F 41% 29.89 in 6.2 mi SW 12.7 mph - N/A   Partly Cloudy
5:50 PM 75.2 °F 51.8 °F 44% 29.89 in 6.2 mi SW 11.5 mph - N/A   Partly Cloudy
6:20 PM 75.2 °F 53.6 °F 47% 29.86 in - SSW 9.2 mph - N/A   Clear
6:50 PM 75.2 °F 53.6 °F 47% 29.86 in - SSW 8.1 mph - N/A   Clear
7:20 PM 73.4 °F 57.2 °F 57% 29.86 in - SSW 8.1 mph - N/A   Clear
7:50 PM 73.4 °F 55.4 °F 53% 29.86 in - SW 5.8 mph - N/A   Clear
8:20 PM 73.4 °F 55.4 °F 53% 29.89 in - SW 6.9 mph - N/A   Clear
8:50 PM 73.4 °F 57.2 °F 57% 29.89 in - WSW 4.6 mph - N/A   Clear
9:00 PM 72 °F 56 °F 48% 29.89 in 6 mi WSW 4.6 mph - -  
9:20 PM 73.4 °F 57.2 °F 57% 29.89 in - SW 6.9 mph - N/A   Clear
9:50 PM 73.4 °F 59.0 °F 61% 29.89 in - SW 6.9 mph - N/A   Clear
10:20 PM 73.4 °F 57.2 °F 57% 29.89 in - SW 5.8 mph - N/A   Clear
10:50 PM 71.6 °F 59.0 °F 64% 29.89 in - SW 6.9 mph - N/A   Clear
11:20 PM 71.6 °F 60.8 °F 69% 29.89 in - SW 6.9 mph - N/A   Clear
11:50 PM 71.6 °F 60.8 °F 69% 29.89 in - SW 5.8 mph - N/A   Clear